DW8305 Weather Reports


time (UTC)temp
C
wind
direction
speed
KPH
gust
KPH
rain 1hr
cm
rain 24hr
cm
rain mn
cm
humidity
%
barometer
mb
20260905002217 15 270 8.0 14.5 0.00 0.41 0.00 86 1014.2
20260905001216 15 270 8.0 12.9 0.00 0.41 0.00 85 1014.1
20260905000218 15 270 14.5 20.9 0.00 0.41 0.00 86 1014.1
20260904235217 15 270 11.3 17.7 0.00 0.41 0.00 86 1014.1
20260904234217 15 293 12.9 22.5 0.00 0.41 0.00 86 1014.0
20260904233217 15 270 8.0 11.3 0.00 0.41 0.00 86 1013.9
20260904232217 15 270 8.0 11.3 0.00 0.41 0.00 85 1013.8
20260904231217 16 270 9.7 11.3 0.00 0.41 0.00 85 1013.7
20260904230217 16 270 12.9 16.1 0.00 0.41 0.00 85 1013.6
20260904225216 16 270 11.3 14.5 0.00 0.41 0.00 85 1013.5
20260904224237 16 270 8.0 14.5 0.00 0.41 0.00 84 1013.4
20260904223217 16 270 8.0 16.1 0.00 0.41 0.00 84 1013.4
20260904222217 16 270 9.7 14.5 0.00 0.41 0.00 84 1013.3
20260904221217 16 270 11.3 20.9 0.00 0.41 0.00 83 1013.2
20260904220217 16 270 9.7 12.9 0.00 0.41 0.00 83 1013.2
20260904215217 16 270 9.7 17.7 0.00 0.41 0.41 84 1013.1
20260904214217 16 270 9.7 19.3 0.00 0.41 0.41 84 1012.9
20260904213217 16 270 6.4 11.3 0.00 0.41 0.41 85 1012.8
20260904212217 16 270 14.5 22.5 0.00 0.41 0.41 85 1012.7
20260904211217 16 270 9.7 12.9 0.00 0.41 0.41 85 1012.7
20260904210217 16 270 11.3 16.1 0.00 0.41 0.41 86 1012.4
20260904205217 17 270 6.4 11.3 0.00 0.41 0.41 86 1012.4
20260904204237 17 293 8.0 12.9 0.00 0.41 0.41 86 1012.2
20260904203217 17 270 4.8 8.0 0.00 0.41 0.41 86 1012.3
20260904202217 17 270 8.0 12.9 0.00 0.41 0.41 87 1012.3
20260904201217 17 270 6.4 9.7 0.00 0.41 0.41 87 1012.1
20260904200217 17 270 9.7 12.9 0.00 0.41 0.41 87 1012.1
20260904195217 17 270 6.4 9.7 0.00 0.41 0.41 87 1012.0
20260904194237 17 270 12.9 19.3 0.00 0.41 0.41 87 1011.8
20260904193217 17 293 6.4 8.0 0.00 0.41 0.41 87 1011.7
20260904192217 17 270 8.0 17.7 0.00 0.41 0.41 88 1011.6
20260904191217 17 270 8.0 14.5 0.00 0.41 0.41 89 1011.5
20260904190257 17 293 4.8 8.0 0.00 0.41 0.41 89 1011.5
20260904185217 17 293 8.0 11.3 0.00 0.41 0.41 90 1011.2
20260904184217 17 270 6.4 9.7 0.00 0.41 0.41 90 1011.1
20260904183217 17 270 9.7 14.5 0.00 0.41 0.41 90 1010.8
20260904182237 17 270 11.3 17.7 0.00 0.41 0.41 89 1010.9
20260904181237 17 270 8.0 17.7 0.00 0.41 0.41 90 1010.7
20260904180217 17 270 9.7 17.7 0.00 0.41 0.41 91 1010.6
20260904175217 17 293 6.4 8.0 0.00 0.41 0.41 91 1010.4
20260904174217 17 248 8.0 12.9 0.00 0.41 0.41 91 1010.3
20260904173217 17 270 11.3 14.5 0.00 0.41 0.41 91 1010.2
20260904172217 17 270 8.0 12.9 0.00 0.41 0.41 91 1009.8
20260904171217 17 270 8.0 14.5 0.00 0.41 0.41 91 1009.5
20260904170217 17 270 14.5 22.5 0.00 0.41 0.41 91 1009.4
20260904165217 17 293 9.7 22.5 0.00 0.41 0.41 91 1009.3
20260904164217 17 270 14.5 25.7 0.00 0.41 0.41 92 1009.3
20260904163217 17 270 14.5 24.1 0.03 0.41 0.41 92 1009.4
20260904162217 17 270 9.7 17.7 0.05 0.41 0.41 93 1009.5
20260904161217 17 270 14.5 24.1 0.05 0.41 0.41 94 1009.3
20260904160217 17 270 9.7 16.1 0.08 0.41 0.41 94 1009.0
20260904155217 17 270 9.7 14.5 0.13 0.41 0.41 94 1008.9
20260904154217 17 270 11.3 16.1 0.15 0.41 0.41 94 1008.7
20260904153217 17 270 16.1 22.5 0.13 0.38 0.38 94 1009.0
20260904152217 17 270 11.3 17.7 0.10 0.36 0.36 94 1008.4
20260904151237 17 270 17.7 27.4 0.10 0.33 0.33 93 1008.9
20260904150217 17 225 8.0 12.9 0.05 0.30 0.30 92 1009.0
20260904145217 18 270 12.9 25.7 0.05 0.28 0.28 90 1008.6
20260904144217 18 270 12.9 25.7 0.08 0.25 0.25 90 1008.4
20260904143237 18 270 6.4 14.5 0.08 0.25 0.25 91 1008.8
20260904142237 18 270 9.7 22.5 0.10 0.25 0.25 91 1009.0
20260904141217 18 248 12.9 25.7 0.08 0.23 0.23 92 1009.0
20260904140217 18 248 9.7 20.9 0.08 0.23 0.23 92 1008.8
20260904135237 19 270 17.7 29.0 0.08 0.23 0.23 91 1008.9
20260904134217 20 293 14.5 22.5 0.05 0.18 0.18 91 1009.3
20260904133217 20 270 11.3 20.9 0.05 0.18 0.18 92 1008.2
20260904132217 20 270 11.3 20.9 0.05 0.15 0.15 91 1008.4
20260904131217 20 270 12.9 20.9 0.15 0.15 0.15 91 1008.2
20260904130237 20 270 12.9 27.4 0.15 0.15 0.15 92 1007.8
20260904125217 20 270 11.3 20.9 0.15 0.15 0.15 93 1007.7
20260904124217 20 270 11.3 25.7 0.13 0.15 0.15 93 1008.0
20260904123217 20 270 22.5 33.8 0.10 0.13 0.13 92 1008.2
20260904122217 21 270 14.5 27.4 0.05 0.08 0.08 90 1007.9
20260904121237 22 270 17.7 27.4 0.00 0.03 0.03 84 1007.7
20260904120217 22 270 9.7 19.3 0.00 0.03 0.03 81 1007.5
20260904115217 22 270 19.3 27.4 0.03 0.03 0.03 80 1007.5
20260904114217 22 270 16.1 27.4 0.03 0.03 0.03 78 1007.3
20260904113217 23 270 17.7 25.7 0.03 0.03 0.03 76 1007.1
20260904112217 23 248 19.3 46.7 0.03 0.03 0.03 72 1007.2
20260904111237 23 270 27.4 43.5 0.03 0.03 0.03 72 1007.7
20260904110217 23 293 12.9 27.4 0.03 0.03 0.03 73 1007.3
20260904105217 23 270 19.3 29.0 0.00 0.00 0.00 73 1007.6
20260904104217 23 203 19.3 43.5 0.00 0.00 0.00 74 1007.8
20260904103217 23 270 20.9 35.4 0.00 0.00 0.00 75 1008.0
20260904102217 22 270 14.5 22.5 0.00 0.00 0.00 76 1008.2
20260904101217 22 270 11.3 16.1 0.00 0.00 0.00 77 1008.4
20260904100217 22 270 20.9 37.0 0.00 0.00 0.00 77 1008.5
20260904095217 22 248 14.5 27.4 0.00 0.00 0.00 77 1008.5
20260904094217 22 270 11.3 19.3 0.00 0.00 0.00 77 1008.6
20260904093217 22 270 12.9 19.3 0.00 0.00 0.00 77 1008.7
20260904092217 22 225 16.1 30.6 0.00 0.00 0.00 78 1008.8
20260904091217 22 248 17.7 30.6 0.00 0.00 0.00 78 1009.0
20260904090217 22 225 9.7 17.7 0.00 0.00 0.00 79 1009.2
20260904085217 22 270 19.3 32.2 0.00 0.00 0.00 79 1009.4
20260904084237 21 270 16.1 32.2 0.00 0.00 0.00 79 1009.2
20260904083217 21 270 11.3 17.7 0.00 0.00 0.00 79 1009.3
20260904082217 21 270 17.7 27.4 0.00 0.00 0.00 79 1009.5
20260904081217 21 225 16.1 27.4 0.00 0.00 0.00 80 1009.5
20260904080217 21 248 11.3 17.7 0.00 0.00 0.00 81 1009.5
20260904075217 21 270 14.5 27.4 0.00 0.03 0.00 81 1009.7
20260904074217 21 270 9.7 17.7 0.00 0.03 0.00 83 1009.8
20260904073217 21 270 8.0 16.1 0.00 0.03 0.00 83 1010.0
20260904072217 21 270 11.3 19.3 0.00 0.03 0.00 84 1010.2
20260904071217 21 248 8.0 19.3 0.00 0.03 0.00 84 1010.3
20260904070217 21 225 11.3 17.7 0.00 0.03 0.00 84 1010.3
20260904065217 21 248 16.1 22.5 0.00 0.05 0.00 85 1010.3
20260904064217 21 270 8.0 16.1 0.00 0.05 0.00 85 1010.4
20260904063217 21 270 12.9 24.1 0.00 0.05 0.00 85 1010.5
20260904062217 20 270 11.3 20.9 0.00 0.05 0.00 86 1010.8
20260904061217 20 225 9.7 17.7 0.00 0.05 0.00 87 1010.7
20260904060217 20 225 12.9 17.7 0.00 0.05 0.00 88 1010.8
20260904055217 20 248 6.4 14.5 0.00 0.05 0.00 89 1010.8
20260904054217 20 225 8.0 14.5 0.00 0.05 0.00 89 1011.0
20260904053217 20 270 9.7 17.7 0.00 0.05 0.00 89 1011.4
20260904052257 20 225 6.4 12.9 0.00 0.05 0.00 89 1011.4
20260904051237 20 225 8.0 12.9 0.00 0.05 0.00 90 1011.5
20260904050217 19 225 8.0 17.7 0.00 0.05 0.00 91 1011.4
20260904045217 19 203 3.2 6.4 0.00 0.05 0.00 91 1011.6
20260904044217 19 248 8.0 11.3 0.00 0.05 0.00 91 1011.9
20260904043217 19 225 12.9 17.7 0.00 0.05 0.00 90 1011.9
20260904042237 19 225 11.3 17.7 0.00 0.05 0.00 90 1012.0
20260904041217 19 225 11.3 17.7 0.00 0.05 0.00 90 1012.2
20260904040237 19 225 8.0 14.5 0.00 0.05 0.00 90 1012.4
20260904035217 19 225 8.0 12.9 0.00 0.05 0.00 90 1012.6
20260904034217 19 270 8.0 11.3 0.00 0.05 0.00 90 1012.7
20260904033217 19 225 8.0 12.9 0.00 0.05 0.00 90 1012.9
20260904032217 19 248 3.2 8.0 0.00 0.05 0.00 90 1012.8
20260904031217 19 248 6.4 9.7 0.00 0.05 0.00 89 1013.0
20260904030237 19 248 4.8 6.4 0.00 0.05 0.00 89 1013.3
20260904025217 19 270 6.4 9.7 0.00 0.05 0.00 89 1013.4
20260904024217 18 248 8.0 11.3 0.00 0.05 0.00 89 1013.5
20260904023257 18 225 9.7 16.1 0.00 0.05 0.00 88 1013.5
20260904022217 18 270 6.4 9.7 0.00 0.05 0.00 88 1013.8
20260904021237 18 225 4.8 12.9 0.00 0.05 0.00 88 1014.0
20260904020217 18 248 4.8 8.0 0.00 0.05 0.00 87 1014.0
20260904015217 18 225 6.4 8.0 0.00 0.05 0.00 87 1014.2
20260904014217 18 225 3.2 9.7 0.00 0.05 0.00 86 1014.2
20260904013217 18 270 6.4 11.3 0.00 0.05 0.00 86 1014.3
20260904012217 18 270 3.2 8.0 0.00 0.05 0.00 86 1014.5
20260904011237 18 203 4.8 6.4 0.00 0.05 0.00 86 1014.2
20260904010217 18 225 6.4 8.0 0.00 0.05 0.00 86 1014.6
20260904005217 18 270 4.8 6.4 0.00 0.05 0.00 86 1014.7
20260904004217 18 225 4.8 11.3 0.00 0.05 0.00 86 1014.9
20260904003237 18 248 6.4 12.9 0.00 0.05 0.00 86 1015.0